User: anonymous   Login
Location: D�derode
(51.8092°N, 10.1065°E)
Time: 02:02:28
(UTC+00:00)
Language:

Cosmos 44 Rocket - Orbit

View from above orbital plane
View from above orbital plane
View from above satellite
View from above satellite

Ground track
Ground track

The orbit data is extracted from the following two-line orbital elements,

1 00877U 64053B   21059.38693923 -.00000059  00000-0  13334-4 0  9993
2 00877  65.0778 301.0402 0081629 293.7393  65.5158 14.59419779998843
Epoch (UTC): 28 February 2021 09:17:11
Eccentricity: 0.0081629
inclination: 65.0778°
perigee height: 637 km
apogee height: 753 km
right ascension of ascending node: 301.0402°
argument of perigee: 293.7393°
revolutions per day: 14.59419779
mean anomaly at epoch: 65.5158°
orbit number at epoch: 99884

The dashed part of the orbit path shows where the satellite is in the earth's shadow,  

DLR